CZ-6A DEB, 56597

Orbit data source: Space-Track

CZ-6A DEB, 56597 is space debris in SSO originally from a launch on Fri, 11 Nov 2022 UTC launched from the Taiyaun Space Center, China (TSC). Debris objects in space refer to the collection of defunct objects orbiting the Earth. Examples of debris include non-operational satellites, rocket bodies, and fragments generated from explosions, collisions, or faulty payload assembly.

Loading next visibility...
Identifier
56597, 2022-151ADV
Orbit
SSO
Country
Flag of CNCN / PRC
Related business
Manufacturer
SAST
Mission
Spacecraft
Bus & Motor
Unknown
Mass
Unknown
Launch date (UTC)
2022-11-11 (3 years ago)
Launch vehicle
Unknown
Launch site
Taiyaun Space Center, China (TSC)
Object type
Payload
Rocket body
Debris
Shape & HBR
Unknown shape, 0.1 m
Radar Cross Section
Small (<0.1 m²)

Expand to show TLE details & history
Last TLE update: 13 hours ago

TLE from 13 hours ago
0 CZ-6A DEB
1 56597U 22151ADV 25349.87285953  .00002926  00000-0  13402-2 0  9994
2 56597  98.9275   9.2823 0105954  65.5268 295.6914 14.19216824136356
Epoch: 2025-12-15T20:56Z
TLE epoch observation values (Epoch: 2025-12-15T20:56:55.063Z)
Latitude
-0.00005°
Longitude
-29.71231°
Altitude
798.464 km
Speed
7.471 km/s
True Right ascension
00h 37m 07s
True Declination
0° 00' 00"
Sunlit
Object was in daylight at epoch
Visualization orbit readout
Latitude
Unknown
Longitude
Unknown
Altitude
Unknown
Speed
Unknown
Apparent Right ascension
Unknown
Apparent Declination
Unknown
Sunlit
N/A
Visualization observer readout
Local Sidereal Time
08:21:36
Azimuth
Unknown
Elevation
Unknown
Doppler factor
Unknown
Orbital elements
Apogee altitude
901.494 km
Perigee altitude
748.85 km
Semi-major axis
7,203.309 km
Eccentricity
0.0106
Inclination
98.9275°
RAAN
9.2823°
Arg. of periapsis
65.5268°
True anomaly
294.59104°
Mean anomaly
295.6914°
Eccentric anomaly
295.14184°
Mean motion
3.55014 °/min
Orbital period
101.4 mins
BSTAR
0.0013402
Loading maneuver chart data...
Computing Atmospheric mass density...
Loading historical data...
Loading historical data...
Loading historical data...
Loading historical data...
Loading historical data...
Loading historical data...
Loading historical data...

Documentation

Showing up to 5 results
|